Estación de Nogales

Ultimos registro cada 15 minutos 48
Estación Fecha / Hora Temperatura Humedad Lluvia Velocidad Dirección Radiación Presion
48 Nogales 06-09-2026 12:45 19,1 51,6 0 1,3 180 821,9 982
47 Nogales 06-09-2026 12:30 18,4 51,4 0 1,7 171 805,6 982
46 Nogales 06-09-2026 12:15 17,7 52,5 0 1,7 163 781,9 982,1
45 Nogales 06-09-2026 12:00 17,4 55,2 0 1,3 171 753,1 982,1
44 Nogales 06-09-2026 11:45 17,2 55,9 0 0,3 174 725,6 982,2
43 Nogales 06-09-2026 11:30 16,2 57,1 0 0 195 690,6 982,3
42 Nogales 06-09-2026 11:15 15,6 58,7 0 0 195 651,9 982,4
41 Nogales 06-09-2026 11:00 14,6 60,7 0 0 223 610,6 982,5
40 Nogales 06-09-2026 10:45 14,1 65,2 0 0 347 565,6 982,5
39 Nogales 06-09-2026 10:30 13,1 66,8 0 0 348 518,1 982,6
38 Nogales 06-09-2026 10:15 11,9 71,5 0 0 348 468,1 982,7
37 Nogales 06-09-2026 10:00 11,6 75,1 0 0 348 413,1 982,6
36 Nogales 06-09-2026 09:45 10 82,7 0 0 348 359,4 982,5
35 Nogales 06-09-2026 09:30 8,2 90,4 0 0 338 305,6 982,4
34 Nogales 06-09-2026 09:15 7 95,5 0 0 305 28,1 982,3
33 Nogales 06-09-2026 09:00 4,4 96,7 0 0 305 141,9 982,2
32 Nogales 06-09-2026 08:45 1,9 96,9 0 0 305 18,1 982,1
31 Nogales 06-09-2026 08:30 1,5 96,7 0 0,3 303 13,1 982
30 Nogales 06-09-2026 08:15 1,5 96,7 0 0 302 9,4 982
29 Nogales 06-09-2026 08:00 1,6 96,8 0 0 302 4,4 981,9
28 Nogales 06-09-2026 07:45 1,3 96,6 0,2 0 302 0,6 981,8
27 Nogales 06-09-2026 07:30 1,9 96,5 0 0 302 0,6 981,9
26 Nogales 06-09-2026 07:15 2,4 96,7 0 0 302 0,6 981,8
25 Nogales 06-09-2026 07:00 2 96,5 0 0,3 296 0,6 981,7
24 Nogales 06-09-2026 06:45 2,1 96,5 0 0,3 279 0,6 981,7
23 Nogales 06-09-2026 06:30 2,1 96,3 0 0,3 268 0,6 981,7
22 Nogales 06-09-2026 06:15 1,9 96 0 0 265 0,6 981,8
21 Nogales 06-09-2026 06:00 2 95,8 0 0 265 0,6 981,7
20 Nogales 06-09-2026 05:45 2,4 95,7 0 0 265 0,6 981,8
19 Nogales 06-09-2026 05:30 2,7 95,8 0 0 265 0,6 981,9
18 Nogales 06-09-2026 05:15 3 95,9 0 0 265 0,6 981,9
17 Nogales 06-09-2026 05:00 2,8 95,4 0 0 263 0,6 982
16 Nogales 06-09-2026 04:45 3,1 95,2 0 0 263 0,6 982,1
15 Nogales 06-09-2026 04:30 3,3 95,1 0 0 263 0,6 982,1
14 Nogales 06-09-2026 04:15 3,5 95 0 0 263 0,6 982,3
13 Nogales 06-09-2026 04:00 3,5 94,8 0 0 263 0,6 982,5
12 Nogales 06-09-2026 03:45 3,8 94,6 0 0 263 0,6 982,7
11 Nogales 06-09-2026 03:30 4,1 94,5 0 0 263 0,6 982,9
10 Nogales 06-09-2026 03:15 4,5 94,4 0 0 263 0,6 983,1
9 Nogales 06-09-2026 03:00 4,4 94,4 0 0 263 0,6 983,2
8 Nogales 06-09-2026 02:45 4,3 93,9 0 0 263 0,6 983,3
7 Nogales 06-09-2026 02:30 4,9 93,7 0 0 263 0,6 983,5
6 Nogales 06-09-2026 02:15 4,9 93,5 0 0 263 0,6 983,7
5 Nogales 06-09-2026 02:00 5,4 93,4 0 0 263 0,6 983,7
4 Nogales 06-09-2026 01:45 5,2 93,1 0 0 260 0,6 983,8
3 Nogales 06-09-2026 01:30 5,6 92,7 0 0 260 0,6 984
2 Nogales 06-09-2026 01:15 5,5 92,2 0 0 260 0,6 984
1 Nogales 06-09-2026 01:00 5,8 91,9 0 0 260 0,6 984